Satellite-Ground Cal/Val Site Overpasses Predictions

Prediction of Satellite NPP Overpassing Cal/Val Site: Antarctic Dome C

Ground Cal/Val Site Location: Latitude: -75.10, Longitude: 123.35; Satellite-Ground Site NADIR distance within 100 km.

Table of predicted overpasses for the next 14.0 days since TLE Epoch: 9/10/2014
Interval Starting Time Ending Time Minimum Distance Time Minimum Distance (km)
1 09/13/2014 14:57:11 09/13/2014 14:57:40 09/13/2014 14:57:26 9.35
2 09/15/2014 07:40:03 09/15/2014 07:40:33 09/15/2014 07:40:18 4.26
3 09/18/2014 15:03:36 09/18/2014 15:04:05 09/18/2014 15:03:51 27.81
4 09/19/2014 14:44:54 09/19/2014 14:45:11 09/19/2014 14:45:02 79.38
5 09/20/2014 07:46:29 09/20/2014 07:46:57 09/20/2014 07:46:43 31.99
6 09/21/2014 07:27:45 09/21/2014 07:28:03 09/21/2014 07:27:54 77.97
7 09/23/2014 15:10:03 09/23/2014 15:10:25 09/23/2014 15:10:14 64.95


NCC Satellite Cal/Val Overpasses Prediction Service
